Flag for U.S.A. Weather past 2 weeks in Charleston, South Carolina, U.S.A.

Now
75 °F

Scattered clouds.


Feels Like: 77 °F
Forecast: 51 / 71 °F
Wind: 13 mph from Southwest

Location: Charleston Air Force Base Reporting Station

Current Time: Dec 28, 2014 at 1:49:06 PM

Latest Report: Dec 28, 2014 at 12:56 PM


Visibility: 10 mi

Pressure: 30.06 "Hg

Humidity: 69%

Dew point: 64 °F

Location of CharlestonLocation

Historic Weather in Charleston — Graph

°F

Charleston temperature yesterday

Maximum temperature yesterday: 68 °F (at 3:56 PM)
Minimum temperature yesterday: 40 °F (at 5:56 AM)
Average temperature yesterday: 53 °F

Past Weeks' High & Low Weather Summary

 TemperatureHumidityPressure
High75 °F (Dec 28, 12:56 PM)100% (Dec 15, 11:04 PM)30.35 "Hg (Dec 15, 11:04 PM)
Low34 °F (Dec 14, 5:56 AM)18% (Dec 13, 12:56 PM)29.76 "Hg (Dec 24, 6:56 PM)
Average52 °F79%30.09 "Hg
* Reported Dec 13 12:56 PM — Dec 28 12:56 PM, Charleston, Weather by CustomWeather, © 2014

Note: Actual official high and low records may vary slightly from our data, if they occured in-between our weather recording intervals... More about our weather records

Advertising

Charleston weather history for previous 24 hours

 ConditionsComfort  
Time TempWeatherWind HumidityBarometerVisibility
12:56 PM
Dec 28
75 °FScattered clouds.13 mph69%30.06 "Hg10 mi
11:56 AM74 °FScattered clouds.13 mph71%30.10 "Hg10 mi
10:56 AM71 °FScattered clouds.10 mph71%30.12 "Hg10 mi
9:56 AM64 °FBroken clouds.No wind73%30.15 "Hg10 mi
8:56 AM58 °FScattered clouds.No wind84%30.15 "Hg10 mi
7:56 AM53 °FBroken clouds.No wind93%30.16 "Hg10 mi
6:56 AM52 °FPassing clouds.No wind93%30.14 "Hg10 mi
5:56 AM51 °FOvercast.No wind92%30.13 "Hg10 mi
4:56 AM52 °FOvercast.No wind89%30.11 "Hg10 mi
3:56 AM51 °FOvercast.No wind92%30.12 "Hg10 mi
2:56 AM53 °FPassing clouds.No wind89%30.16 "Hg10 mi
1:56 AM53 °FPassing clouds.No wind86%30.18 "Hg10 mi
12:56 AM53 °FPassing clouds.No wind89%30.19 "Hg10 mi
11:56 PM
Dec 27
54 °FPassing clouds.No wind83%30.21 "Hg10 mi
10:56 PM54 °FPassing clouds.No wind83%30.24 "Hg10 mi
9:56 PM55 °FPassing clouds.No wind77%30.25 "Hg10 mi
8:56 PM55 °FPassing clouds.No wind77%30.25 "Hg10 mi
7:56 PM57 °FPartly cloudy.3 mph69%30.26 "Hg10 mi
6:56 PM57 °FPassing clouds.5 mph72%30.25 "Hg10 mi
5:56 PM58 °FPassing clouds.5 mph72%30.25 "Hg10 mi
4:56 PM63 °FScattered clouds.3 mph63%30.25 "Hg10 mi
3:56 PM68 °FPassing clouds.5 mph53%30.23 "Hg10 mi
2:56 PM67 °FScattered clouds.3 mph53%30.23 "Hg10 mi
1:56 PM67 °FScattered clouds.No wind49%30.25 "Hg10 mi
Weather by CustomWeather, © 2014

See weather overviewHow to use our weather pages